[[{"header":{"parameterUnit":"m.s-1","parameterCategory":1,"la1":30.2991,"la2":30.254,"lo1":-89.0895,"lo2":-89.0444,"dy":0.0017,"dx":0.0017,"nx":28,"ny":28,"refTime":"2025-03-23T09:00:00:Z","depth":0,"parameterNumber":2,"parameterNumberName":"U-component_of_WINDS"},"data":[0,0,0,0,0,0,0,0,0,0,0,0,0,0,0,0,0,0,0,0,0,0,0,0,0,0,0,0,0,0,0,0,0,0,0,0,0,0,0,0,0,0,0,0,0,0,0,0,0,0,0,0,0,0,0,0,0,0,-0.9022,-0.9021,0,-0.8927,-0.8926,-0.8925,-0.8876,-0.8876,-0.8876,-0.8876,-0.8778,-0.8776,-0.8773,0,0,0,0,0,0,0,0,0,0,0,0,0,-0.9162,-0.916,-0.9022,-0.9021,-0.902,-0.8927,-0.8926,-0.8924,-0.8876,-0.8876,-0.8876,-0.8876,-0.8779,-0.8776,-0.8773,0,0,0,0,0,0,0,0,0,0,0,0,0,-0.9087,-0.9159,-0.9022,-0.8985,-0.898,-0.8927,-0.8926,-0.8924,-0.8876,-0.8876,-0.8876,-0.8876,-0.878,-0.8776,-0.8772,-0.8749,0,0,-0.8761,-0.8759,0,0,0,0,0,0,0,0,-0.9092,-0.9082,-0.8991,-0.8987,-0.8982,-0.8913,-0.8939,-0.8865,-0.8876,-0.8916,-0.8876,-0.8876,-0.8823,-0.8816,-0.8798,-0.8745,-0.8741,-0.876,-0.8758,-0.8756,-0.8755,0,0,0,0,0,0,0,-0.9097,-0.9086,-0.8984,-0.899,-0.8985,-0.8972,-0.8962,-0.8925,-0.8871,-0.8912,-0.8909,-0.8898,-0.8821,-0.8802,-0.8795,-0.8739,-0.876,-0.8757,-0.8755,-0.8753,-0.8661,-0.8661,0,0,0,0,0,0,-0.9108,-0.9091,-0.8987,-0.8982,-0.9038,-0.897,-0.8958,-0.8935,-0.8871,-0.8861,-0.8898,-0.8896,-0.8808,-0.88,-0.8792,-0.8759,-0.8756,-0.8753,-0.875,-0.8661,-0.8661,-0.8661,0,0,0,0,0,0,-0.9111,-0.91,-0.8991,-0.9035,-0.902,-0.8967,-0.8943,-0.8934,-0.8915,-0.886,-0.885,-0.8889,-0.8808,-0.8797,-0.876,-0.8755,-0.8751,-0.8747,-0.8661,-0.8661,-0.8661,-0.8696,0,0,0,0,0,0,-0.9116,-0.9101,-0.9092,-0.9035,-0.9018,-0.8962,-0.8942,-0.8932,-0.8908,-0.8905,-0.8849,-0.884,-0.8807,-0.8766,-0.8756,-0.875,-0.8744,-0.8662,-0.8661,-0.8661,-0.8695,-0.8697,-0.8699,0,0,0,0,0,-0.9121,-0.9106,-0.9092,-0.908,-0.9006,-0.8962,-0.8952,-0.8915,-0.8908,-0.8898,-0.8863,-0.8842,-0.8758,-0.8763,-0.8751,-0.8744,-0.8662,-0.8661,-0.8661,-0.8694,-0.8696,-0.8699,0,0,0,0,0,0,-0.9164,-0.9098,-0.9081,-0.9048,-0.9011,-0.8954,-0.894,-0.8919,-0.8883,-0.8881,-0.8836,-0.8824,-0.8791,-0.8764,-0.877,-0.8717,-0.8707,-0.8705,-0.8736,-0.8738,-0.874,-0.8747,-0.8741,0,0,0,0,0,-0.9169,-0.9139,-0.9083,-0.9058,-0.9041,-0.8994,-0.8973,-0.8948,-0.8907,-0.8891,-0.8853,-0.8815,-0.878,-0.8758,-0.8722,-0.8691,-0.8677,-0.868,-0.8682,-0.8684,-0.8682,-0.8662,-0.8662,-0.866,-0.866,-0.866,0,0,-0.918,-0.914,-0.9124,-0.9066,-0.9034,-0.9003,-0.8981,-0.8949,-0.8926,-0.8886,-0.8849,-0.882,-0.8774,-0.8739,-0.8722,-0.8716,-0.8679,-0.8683,-0.8685,-0.8682,-0.8662,-0.8662,-0.8662,-0.866,-0.866,-0.866,0,0,-0.9184,-0.9152,-0.9127,-0.9095,-0.9048,-0.9016,-0.9011,-0.8956,-0.8935,-0.8897,-0.8867,-0.8838,-0.8779,-0.8747,-0.8723,-0.8714,-0.8692,-0.8704,-0.8713,-0.8695,-0.8695,-0.8695,-0.8691,-0.869,-0.8702,-0.8702,-0.8702,0,-0.9204,-0.9156,-0.9117,-0.9087,-0.9062,-0.9025,-0.8999,-0.897,-0.8914,-0.8897,-0.8891,-0.8815,-0.8781,-0.8738,-0.8736,-0.8718,-0.8709,-0.871,-0.8698,-0.8697,-0.8697,-0.8692,-0.8691,-0.8704,-0.8704,-0.8704,-0.8704,0,-0.9182,-0.915,-0.9136,-0.9081,-0.9055,-0.9027,-0.8983,-0.8961,-0.8938,-0.8907,-0.8868,-0.8827,-0.8782,-0.877,-0.8747,-0.8723,-0.872,-0.8707,-0.8695,-0.8699,-0.8694,-0.8692,-0.8706,-0.8706,-0.8705,-0.8705,0,0,-0.9211,-0.9134,-0.913,-0.9104,-0.9048,-0.9022,-0.8992,-0.8948,-0.893,-0.8892,-0.8865,-0.8816,-0.8802,-0.8775,-0.8748,-0.8732,-0.8726,-0.872,-0.8718,-0.8722,-0.8696,-0.8706,-0.8705,-0.8712,-0.8712,-0.8711,-0.87,0,-0.9206,-0.9151,-0.9114,-0.9074,-0.9043,-0.9007,-0.8981,-0.8943,-0.8914,-0.8883,-0.885,-0.8815,-0.8801,-0.8784,-0.8766,-0.8731,-0.8721,-0.8731,-0.8686,-0.8685,-0.8698,-0.8703,-0.8713,-0.8705,-0.8698,-0.8697,-0.8697,0,-0.9193,-0.9156,-0.9112,-0.9058,-0.9044,-0.9021,-0.8977,-0.8948,-0.8905,-0.8885,-0.8854,-0.8827,-0.8794,-0.8786,-0.8739,-0.8747,-0.8726,-0.8706,-0.8705,-0.8699,-0.8691,-0.8696,-0.8701,-0.87,-0.8694,-0.8694,-0.8694,0,-0.9217,-0.9155,-0.9121,-0.91,-0.9037,-0.9022,-0.8995,-0.8952,-0.8927,-0.8889,-0.8873,-0.8831,-0.8809,-0.8777,-0.8739,-0.8737,-0.8695,-0.8685,-0.8677,-0.8678,-0.8669,-0.867,-0.8671,-0.8658,-0.8658,-0.8658,-0.8658,0,-0.9215,-0.9189,-0.913,-0.9109,-0.9079,-0.9037,-0.9009,-0.8979,-0.894,-0.8912,-0.8879,-0.8853,-0.8805,-0.8773,-0.8743,-0.8708,-0.8699,-0.8681,-0.8673,-0.8683,-0.8685,-0.8669,-0.8668,-0.8657,-0.8657,-0.8657,-0.8657,0,-0.9236,-0.9196,-0.9155,-0.9099,-0.9084,-0.9064,-0.9016,-0.8994,-0.8962,-0.8927,-0.8917,-0.8867,-0.8828,-0.8787,-0.8734,-0.8714,-0.868,-0.867,-0.8695,-0.869,-0.8684,-0.8685,-0.8673,-0.8669,-0.866,-0.866,-0.866,0,-0.9237,-0.9216,-0.9157,-0.9136,-0.911,-0.9076,-0.9051,-0.9009,-0.8984,-0.8933,-0.8917,-0.8875,-0.8839,-0.8778,-0.8738,-0.8697,-0.8685,-0.8683,-0.8678,-0.8689,-0.8683,-0.8685,-0.8682,-0.8685,-0.8685,-0.8685,-0.8686,0,-0.9243,-0.9223,-0.9188,-0.9146,-0.9117,-0.9082,-0.9045,-0.903,-0.898,-0.8954,-0.8913,-0.8886,-0.8832,-0.879,-0.8745,-0.8716,-0.8693,-0.8688,-0.8683,-0.8693,-0.8708,-0.8699,-0.8698,-0.8688,-0.8688,-0.8688,-0.8687,-0.8687,-0.9253,-0.9232,-0.9187,-0.9149,-0.9117,-0.9084,-0.906,-0.9025,-0.8991,-0.8943,-0.892,-0.888,-0.8836,-0.8772,-0.8744,-0.8712,-0.8705,-0.8699,-0.8698,-0.8697,-0.8699,-0.8714,-0.8703,-0.8703,-0.8703,-0.8703,-0.8703,0,-0.9256,-0.9225,-0.919,-0.914,-0.911,-0.909,-0.9049,-0.9025,-0.8989,-0.8951,-0.8916,-0.8869,-0.8829,-0.8785,-0.8742,-0.8724,-0.8712,-0.8714,-0.8715,-0.8709,-0.8708,-0.8715,-0.8725,-0.8725,-0.8725,-0.8725,-0.8725,-0.8725,-0.9254,-0.9217,-0.9193,-0.9141,-0.911,-0.907,-0.9047,-0.9016,-0.8985,-0.8934,-0.8901,-0.8872,-0.8831,-0.8785,-0.8747,-0.8735,-0.8721,-0.8726,-0.8711,-0.871,-0.8709,-0.8707,-0.8714,-0.8723,-0.8723,-0.8714,-0.8714,-0.8714]},{"header":{"parameterUnit":"m.s-1","parameterCategory":1,"la1":30.2991,"la2":30.254,"lo1":-89.0895,"lo2":-89.0444,"dy":0.0017,"dx":0.0017,"nx":28,"ny":28,"refTime":"2025-03-23T09:00:00:Z","depth":0,"parameterNumber":3,"parameterNumberName":"V-component_of_WINDS"},"data":[0,0,0,0,0,0,0,0,0,0,0,0,0,0,0,0,0,0,0,0,0,0,0,0,0,0,0,0,0,0,0,0,0,0,0,0,0,0,0,0,0,0,0,0,0,0,0,0,0,0,0,0,0,0,0,0,0,0,2.0094,2.0094,0,2.0113,2.0113,2.0113,2.0084,2.0083,2.0082,2.0081,2.0098,2.01,2.0101,0,0,0,0,0,0,0,0,0,0,0,0,0,2.0031,2.0032,2.0094,2.0094,2.0095,2.0113,2.0113,2.0113,2.0084,2.0083,2.0082,2.008,2.0098,2.0099,2.0101,0,0,0,0,0,0,0,0,0,0,0,0,0,2.0055,2.0033,2.0094,2.0082,2.0081,2.0113,2.0113,2.0114,2.0084,2.0083,2.0081,2.008,2.0097,2.0099,2.0101,2.0145,0,0,2.0108,2.0109,0,0,0,0,0,0,0,0,2.0054,2.0057,2.0084,2.0083,2.0082,2.0095,2.0097,2.0124,2.0085,2.0083,2.0081,2.0079,2.0098,2.01,2.0107,2.0146,2.0146,2.0108,2.0109,2.011,2.0111,0,0,0,0,0,0,0,2.0052,2.0056,2.0102,2.0084,2.0083,2.0075,2.0077,2.0102,2.0099,2.0083,2.0081,2.0084,2.0097,2.0105,2.0107,2.0147,2.0108,2.011,2.0111,2.0112,2.0224,2.0225,0,0,0,0,0,0,2.0052,2.0055,2.0101,2.0102,2.0064,2.0078,2.008,2.0092,2.0099,2.0098,2.0085,2.0082,2.0102,2.0105,2.0108,2.0161,2.011,2.0112,2.0113,2.0222,2.0224,2.0226,0,0,0,0,0,0,2.0051,2.0056,2.01,2.0078,2.0083,2.008,2.0095,2.0093,2.0101,2.01,2.0099,2.0094,2.0101,2.0105,2.0136,2.0161,2.0113,2.0115,2.022,2.0223,2.0225,2.0268,0,0,0,0,0,0,2.0049,2.0056,2.0073,2.0079,2.0084,2.013,2.0096,2.0095,2.0105,2.0101,2.0108,2.0107,2.01,2.0133,2.0139,2.0163,2.0117,2.0218,2.0221,2.0224,2.0264,2.0271,2.0278,0,0,0,0,0,2.0047,2.0084,2.0074,2.008,2.0106,2.0131,2.0134,2.0126,2.0107,2.0124,2.0123,2.0107,2.0157,2.0137,2.0142,2.0168,2.0216,2.022,2.0224,2.0261,2.027,2.0278,0,0,0,0,0,0,2.008,2.0084,2.0074,2.0113,2.0122,2.0126,2.0148,2.0135,2.0149,2.0145,2.0133,2.0135,2.0169,2.0171,2.0149,2.0211,2.0184,2.0189,2.021,2.0218,2.0225,2.0225,2.0118,0,0,0,0,0,2.0092,2.0113,2.0115,2.015,2.0155,2.015,2.0161,2.0154,2.0162,2.0165,2.0167,2.0175,2.0193,2.0205,2.0221,2.0263,2.0265,2.0283,2.029,2.0296,2.0301,2.0326,2.0335,2.0239,2.0239,2.0239,0,0,2.0118,2.0122,2.0136,2.0157,2.0163,2.0185,2.0154,2.0178,2.0194,2.0169,2.02,2.0201,2.021,2.0247,2.0264,2.025,2.0328,2.03,2.0305,2.0308,2.0331,2.034,2.0348,2.0241,2.0241,2.024,0,0,2.0176,2.018,2.0211,2.0218,2.0228,2.0224,2.0231,2.0237,2.0238,2.0268,2.0251,2.0269,2.0299,2.0306,2.0314,2.0374,2.0361,2.0379,2.0416,2.044,2.0448,2.0455,2.0479,2.0488,2.0384,2.0384,2.0384,0,2.0206,2.024,2.0228,2.0255,2.0265,2.0243,2.0274,2.028,2.0295,2.0302,2.0286,2.0324,2.0328,2.0368,2.0383,2.0389,2.0398,2.0381,2.0448,2.0454,2.046,2.0484,2.0493,2.0387,2.0386,2.0386,2.0386,0,2.0278,2.0301,2.0324,2.034,2.0352,2.038,2.0374,2.0387,2.0378,2.0376,2.0408,2.0412,2.0429,2.0437,2.0428,2.0477,2.0468,2.045,2.0422,2.0472,2.0494,2.0503,2.039,2.0389,2.0389,2.0388,0,0,2.036,2.0369,2.0379,2.0386,2.0395,2.0412,2.0439,2.0457,2.047,2.0479,2.0503,2.0529,2.0512,2.0521,2.0512,2.0532,2.0583,2.0511,2.0512,2.0528,2.064,2.0657,2.0668,2.0572,2.0574,2.0575,2.0641,0,2.0421,2.047,2.0461,2.0508,2.0531,2.0509,2.0533,2.054,2.0539,2.0557,2.0554,2.0575,2.0549,2.0555,2.0574,2.0573,2.0606,2.0568,2.0596,2.0597,2.0599,2.0678,2.0696,2.0758,2.0649,2.065,2.0651,0,2.05,2.0514,2.0565,2.0571,2.058,2.0602,2.0618,2.0635,2.0643,2.064,2.065,2.0637,2.0664,2.0633,2.067,2.0645,2.0655,2.0656,2.0658,2.0664,2.0631,2.069,2.0777,2.0788,2.0664,2.0663,2.0662,0,2.056,2.0591,2.0626,2.0632,2.064,2.0656,2.0659,2.0666,2.0677,2.069,2.0698,2.0713,2.0723,2.0735,2.0726,2.0704,2.0767,2.0734,2.0767,2.0767,2.0785,2.0784,2.0879,2.0784,2.0784,2.0784,2.0784,0,2.0631,2.0664,2.0654,2.0676,2.0711,2.0699,2.0734,2.0735,2.0741,2.0762,2.0742,2.0763,2.0749,2.0768,2.076,2.0795,2.0798,2.0797,2.0796,2.0802,2.0803,2.0812,2.0809,2.0786,2.0786,2.0785,2.0785,0,2.0707,2.07,2.0738,2.0741,2.0743,2.077,2.0772,2.0793,2.0789,2.0817,2.0822,2.0816,2.0838,2.083,2.0852,2.0847,2.0892,2.0882,2.089,2.0889,2.0924,2.0923,2.1031,2.1046,2.0938,2.0939,2.094,0,2.0755,2.078,2.0786,2.08,2.0806,2.0827,2.0839,2.0827,2.084,2.0851,2.087,2.089,2.0906,2.0941,2.0939,2.0956,2.095,2.0986,2.0952,2.0958,2.0955,2.0955,2.0959,2.0995,2.0996,2.0997,2.0998,0,2.0843,2.0839,2.0857,2.0875,2.0891,2.0903,2.0915,2.0926,2.0914,2.093,2.0953,2.0965,2.0988,2.1009,2.1024,2.1027,2.1012,2.1008,2.1017,2.1026,2.1031,2.1032,2.0913,2.1006,2.1005,2.1005,2.1004,2.1004,2.0909,2.0931,2.094,2.0961,2.0968,2.0979,2.1,2.0998,2.1017,2.1037,2.1027,2.1053,2.106,2.1079,2.1084,2.1105,2.1091,2.1103,2.1107,2.1111,2.1118,2.1024,2.1107,2.1106,2.1106,2.1106,2.1106,0,2.0999,2.1004,2.1023,2.1041,2.1058,2.104,2.1051,2.1067,2.1091,2.1099,2.1115,2.1141,2.1161,2.116,2.1178,2.1195,2.1188,2.12,2.1201,2.1203,2.1127,2.112,2.1206,2.1206,2.1206,2.1206,2.1206,2.1206,2.1049,2.1087,2.1083,2.1124,2.1127,2.1154,2.1163,2.1173,2.1179,2.121,2.1227,2.1225,2.123,2.1248,2.1266,2.1265,2.1274,2.129,2.1287,2.1218,2.1208,2.1199,2.1191,2.1291,2.1291,2.1361,2.1362,2.1362]}]]